Tracking 30142 objects as of 21-Jan-2025
HD Live streaming from Space Station
objects crossing your sky now

STARLINK-2706

Track STARLINK-2706 now!
10-day predictions
STARLINK-2706 is classified as:


NORAD ID: 48481
Int'l Code: 2021-040BF
Perigee: 553.3 km
Apogee: 555.4 km
Inclination: 53.1 °
Period: 95.6 minutes
Semi major axis: 6925 km
RCS: Unknown
Launch date: May 9, 2021
Source: United States (US)
Launch site: AIR FORCE EASTERN TEST RANGE (AFETR)
Your satellite tracking list
Your tracking list is empty




NASA's NSSDC Master Catalog

Two Line Element Set (TLE):
1 48481U 21040BF  25020.91342278  .00002570  00000-0  19134-3 0  9992
2 48481  53.0550 254.9234 0001515  87.7668 272.3494 15.06398913204123
Source of the keplerian elements: AFSPC